Location: Friaudour
(46.0460°N, 1.2873°E)
Time: 09:53:44
(UTC+00:00)

Cosmos 1833 Rocket - Pass Details

Date: 14 July 2020
Orbit: 832 x 840 km, 71.0° (Epoch: 05 August)

Event Time Altitude Azimuth Distance (km) Brightness Sun altitude
Exits shadow 02:26:43 22° 222° (SW) 1,753 3.7 -14.7°
Maximum altitude 02:30:22 64° 299° (WNW) 920 2.8 -14.3°
Drops below altitude 10° 02:35:58 10° 21° (NNE) 2,455 6.4 -13.7°
Sets 02:38:27 0° 25° (NNE) 3,394 7.6 -13.5°
